RYR85HE EGPH-EBCI

Flight info

Callsign RYR85HE
Flight time 1h 27m
Altitude 33000
Route GOSAM P600 FENIK L612 NAVSO DCT AKOMU DCT VAMEB UL612 HON L15 BIG Q70 VABIK/N0358F230 Q70 KOK
Aircraft B38M/M-SDE1FGHILORVWXY/HB1

Departure

Time 2026-04-21 13:04
Airport Edinburgh Airport (EGPH)

Arrival

Time 2026-04-21 14:31
Airport Brussels South Charleroi Airport (EBCI)
Time Latitude Longitude Altitude Speed Heading
2026-04-21 12:27 55.94938 -3.35990 119 ft 0 kts 254°
2026-04-21 12:54 55.94938 -3.35986 119 ft 2 kts 255°
2026-04-21 12:54 55.94944 -3.35941 114 ft 4 kts 264°
2026-04-21 12:54 55.94944 -3.35893 115 ft 4 kts 278°
2026-04-21 12:54 55.94936 -3.35848 115 ft 4 kts 304°
2026-04-21 12:55 55.94927 -3.35829 114 ft 0 kts 322°
2026-04-21 12:57 55.94936 -3.35841 114 ft 3 kts 326°
2026-04-21 12:58 55.94969 -3.35862 116 ft 6 kts 355°
2026-04-21 12:58 55.95017 -3.35833 118 ft 8 kts 12°
2026-04-21 12:58 55.95063 -3.35893 117 ft 10 kts 300°
2026-04-21 12:58 55.95098 -3.36019 119 ft 12 kts 291°
2026-04-21 12:59 55.95125 -3.36173 118 ft 14 kts 288°
2026-04-21 12:59 55.95129 -3.36294 118 ft 10 kts 241°
2026-04-21 12:59 55.95088 -3.36416 116 ft 14 kts 239°
2026-04-21 12:59 55.95023 -3.36611 116 ft 24 kts 239°
2026-04-21 13:00 55.94914 -3.36930 116 ft 35 kts 239°
2026-04-21 13:00 55.94805 -3.37252 115 ft 30 kts 239°
2026-04-21 13:00 55.94698 -3.37568 117 ft 29 kts 238°
2026-04-21 13:00 55.94593 -3.37879 117 ft 30 kts 239°
2026-04-21 13:01 55.94483 -3.38202 117 ft 29 kts 239°
2026-04-21 13:01 55.94380 -3.38507 118 ft 26 kts 239°
2026-04-21 13:01 55.94292 -3.38766 116 ft 19 kts 238°
2026-04-21 13:01 55.94310 -3.38892 116 ft 13 kts 317°
2026-04-21 13:02 55.94386 -3.38971 115 ft 9 kts 336°
2026-04-21 13:02 55.94421 -3.38953 112 ft 4 kts 54°
2026-04-21 13:02 55.94438 -3.38904 115 ft 0 kts 58°
2026-04-21 13:03 55.94439 -3.38904 115 ft 0 kts 58°
2026-04-21 13:03 55.94506 -3.38705 115 ft 56 kts 59°
2026-04-21 13:03 55.94849 -3.37697 115 ft 132 kts 58°
2026-04-21 13:03 55.95389 -3.36142 625 ft 154 kts 59°
2026-04-21 13:04 55.95950 -3.34517 1709 ft 154 kts 58°
2026-04-21 13:04 55.96721 -3.32999 2416 ft 176 kts 45°
2026-04-21 13:04 55.97691 -3.31465 3101 ft 195 kts 44°
2026-04-21 13:04 55.98747 -3.29820 3960 ft 208 kts 45°
2026-04-21 13:05 55.99939 -3.28201 4803 ft 224 kts 32°
2026-04-21 13:05 56.01522 -3.27577 5423 ft 254 kts
2026-04-21 13:05 56.03227 -3.28784 5986 ft 277 kts 321°
2026-04-21 13:05 56.04272 -3.31724 6906 ft 291 kts 284°
2026-04-21 13:06 56.04213 -3.35301 7880 ft 290 kts 249°
2026-04-21 13:06 56.03381 -3.38573 8872 ft 293 kts 240°
2026-04-21 13:06 56.02471 -3.41917 9666 ft 303 kts 240°
2026-04-21 13:06 56.01502 -3.45218 10814 ft 300 kts 237°
2026-04-21 13:07 56.00470 -3.48589 11396 ft 317 kts 238°
2026-04-21 13:07 55.99397 -3.52137 11990 ft 331 kts 239°
2026-04-21 13:07 55.98295 -3.55817 12802 ft 337 kts 239°
2026-04-21 13:07 55.97196 -3.59492 13678 ft 342 kts 239°
2026-04-21 13:08 55.96066 -3.63269 14531 ft 346 kts 239°
2026-04-21 13:08 55.94923 -3.67089 15285 ft 351 kts 239°
2026-04-21 13:08 55.93762 -3.70956 16083 ft 355 kts 239°
2026-04-21 13:08 55.92589 -3.74862 16844 ft 360 kts 239°
2026-04-21 13:09 55.91394 -3.78831 17582 ft 364 kts 239°
2026-04-21 13:09 55.90199 -3.82794 18329 ft 369 kts 239°
2026-04-21 13:09 55.88974 -3.86851 19035 ft 373 kts 239°
2026-04-21 13:09 55.87737 -3.90941 19669 ft 376 kts 239°
2026-04-21 13:10 55.86486 -3.95068 20308 ft 380 kts 239°
2026-04-21 13:10 55.85238 -3.99178 20920 ft 383 kts 239°
2026-04-21 13:10 55.83962 -4.03375 21537 ft 387 kts 239°
2026-04-21 13:10 55.82674 -4.07601 22138 ft 390 kts 239°
2026-04-21 13:11 55.81374 -4.11861 22737 ft 394 kts 239°
2026-04-21 13:11 55.80058 -4.16166 23330 ft 397 kts 238°
2026-04-21 13:11 55.78450 -4.20125 23882 ft 394 kts 220°
2026-04-21 13:11 55.76289 -4.23092 24371 ft 393 kts 210°
2026-04-21 13:12 55.73851 -4.25184 24804 ft 387 kts 192°
2026-04-21 13:12 55.71203 -4.25835 25263 ft 382 kts 174°
2026-04-21 13:12 55.68606 -4.25079 25681 ft 378 kts 159°
2026-04-21 13:12 55.66194 -4.23356 26124 ft 378 kts 152°
2026-04-21 13:13 55.63820 -4.21296 26556 ft 381 kts 150°
2026-04-21 13:13 55.61458 -4.19127 27000 ft 384 kts 149°
2026-04-21 13:13 55.59096 -4.16894 27439 ft 386 kts 149°
2026-04-21 13:13 55.56719 -4.14619 27878 ft 389 kts 149°
2026-04-21 13:14 55.54329 -4.12312 28310 ft 391 kts 149°
2026-04-21 13:14 55.51929 -4.09987 28733 ft 394 kts 149°
2026-04-21 13:14 55.49518 -4.07645 29147 ft 397 kts 149°
2026-04-21 13:14 55.47095 -4.05291 29566 ft 399 kts 150°
2026-04-21 13:15 55.44653 -4.02920 29949 ft 402 kts 150°
2026-04-21 13:15 55.42226 -4.00566 30338 ft 404 kts 150°
2026-04-21 13:15 55.39754 -3.98174 30696 ft 407 kts 150°
2026-04-21 13:15 55.37399 -3.95897 30985 ft 409 kts 150°
2026-04-21 13:16 55.34897 -3.93481 31375 ft 409 kts 151°
2026-04-21 13:16 55.32388 -3.91063 31685 ft 412 kts 151°
2026-04-21 13:16 55.29862 -3.88631 31952 ft 415 kts 151°
2026-04-21 13:16 55.27350 -3.86217 32227 ft 418 kts 152°
2026-04-21 13:17 55.24790 -3.83760 32513 ft 420 kts 152°
2026-04-21 13:17 55.22205 -3.81342 32793 ft 423 kts 155°
2026-04-21 13:17 55.19554 -3.79092 33069 ft 425 kts 155°
2026-04-21 13:17 55.16889 -3.76812 33357 ft 427 kts 155°
2026-04-21 13:18 55.14200 -3.74501 33516 ft 431 kts 155°
2026-04-21 13:18 55.11510 -3.72189 33508 ft 430 kts 155°
2026-04-21 13:18 55.06143 -3.67583 33496 ft 430 kts 155°
2026-04-21 13:19 55.00801 -3.63013 33488 ft 431 kts 155°
2026-04-21 13:19 54.95387 -3.58395 33487 ft 432 kts 155°
2026-04-21 13:20 54.89962 -3.53781 33483 ft 433 kts 156°
2026-04-21 13:20 54.84552 -3.49193 33481 ft 435 kts 156°
2026-04-21 13:21 54.79099 -3.44584 33472 ft 436 kts 156°
2026-04-21 13:21 54.73659 -3.40000 33470 ft 437 kts 156°
2026-04-21 13:22 54.68186 -3.35401 33464 ft 438 kts 156°
2026-04-21 13:22 54.62699 -3.30804 33466 ft 438 kts 156°
2026-04-21 13:23 54.57228 -3.26235 33455 ft 439 kts 156°
2026-04-21 13:23 54.51724 -3.21651 33451 ft 440 kts 156°
2026-04-21 13:24 54.46201 -3.17066 33449 ft 440 kts 156°
2026-04-21 13:24 54.40666 -3.12485 33451 ft 441 kts 156°
2026-04-21 13:25 54.35154 -3.07936 33436 ft 441 kts 156°
2026-04-21 13:25 54.29610 -3.03374 33434 ft 442 kts 156°
2026-04-21 13:26 54.24089 -2.98845 33438 ft 442 kts 157°
2026-04-21 13:26 54.19427 -2.95029 33432 ft 443 kts 157°
2026-04-21 13:27 54.13831 -2.90814 33429 ft 443 kts 159°
2026-04-21 13:27 54.08161 -2.86659 33420 ft 443 kts 159°
2026-04-21 13:28 54.02495 -2.82503 33414 ft 443 kts 159°
2026-04-21 13:28 53.96817 -2.78377 33408 ft 444 kts 159°
2026-04-21 13:29 53.91155 -2.74283 33404 ft 444 kts 160°
2026-04-21 13:29 53.85458 -2.70176 33400 ft 445 kts 160°
2026-04-21 13:30 53.79785 -2.66098 33400 ft 445 kts 160°
2026-04-21 13:30 53.74072 -2.62004 33399 ft 446 kts 160°
2026-04-21 13:31 53.68356 -2.57920 33400 ft 446 kts 160°
2026-04-21 13:31 53.62651 -2.53856 33397 ft 447 kts 160°
2026-04-21 13:32 53.56921 -2.49785 33394 ft 447 kts 160°
2026-04-21 13:32 53.51180 -2.45719 33395 ft 448 kts 160°
2026-04-21 13:33 53.45421 -2.41652 33400 ft 449 kts 160°
2026-04-21 13:33 53.39649 -2.37588 33395 ft 450 kts 160°
2026-04-21 13:34 53.33896 -2.33550 33408 ft 451 kts 160°
2026-04-21 13:34 53.28097 -2.29491 33395 ft 451 kts 161°
2026-04-21 13:35 53.22279 -2.25431 33404 ft 453 kts 161°
2026-04-21 13:35 53.16447 -2.21373 33394 ft 454 kts 161°
2026-04-21 13:36 53.10646 -2.17349 33374 ft 455 kts 161°
2026-04-21 13:36 53.04788 -2.13297 33380 ft 456 kts 161°
2026-04-21 13:37 52.98943 -2.09266 33367 ft 457 kts 161°
2026-04-21 13:37 52.93051 -2.05214 33370 ft 458 kts 161°
2026-04-21 13:38 52.87143 -2.01164 33369 ft 460 kts 161°
2026-04-21 13:38 52.81217 -1.97113 33368 ft 461 kts 161°
2026-04-21 13:39 52.75279 -1.93066 33364 ft 461 kts 162°
2026-04-21 13:39 52.69355 -1.89041 33365 ft 463 kts 162°
2026-04-21 13:40 52.63387 -1.84997 33365 ft 464 kts 162°
2026-04-21 13:40 52.57404 -1.80956 33371 ft 465 kts 162°
2026-04-21 13:41 52.51415 -1.76922 33371 ft 465 kts 162°
2026-04-21 13:41 52.45414 -1.72892 33374 ft 466 kts 162°
2026-04-21 13:42 52.39445 -1.68893 33371 ft 466 kts 162°
2026-04-21 13:42 52.36495 -1.66631 33355 ft 471 kts 150°
2026-04-21 13:42 52.33943 -1.63231 33369 ft 475 kts 136°
2026-04-21 13:43 52.29310 -1.55451 33384 ft 478 kts 136°
2026-04-21 13:43 52.24726 -1.47673 33401 ft 478 kts 135°
2026-04-21 13:44 52.20114 -1.39837 33398 ft 478 kts 135°
2026-04-21 13:44 52.15653 -1.32281 33397 ft 478 kts 135°
2026-04-21 13:45 52.11023 -1.24461 33390 ft 479 kts 135°
2026-04-21 13:45 52.06419 -1.16710 33371 ft 479 kts 135°
2026-04-21 13:46 52.01779 -1.08932 33316 ft 479 kts 135°
2026-04-21 13:46 51.97133 -1.01165 33314 ft 479 kts 135°
2026-04-21 13:47 51.92485 -0.93416 33324 ft 479 kts 135°
2026-04-21 13:47 51.87826 -0.85673 33324 ft 479 kts 135°
2026-04-21 13:48 51.83194 -0.77998 33321 ft 479 kts 135°
2026-04-21 13:48 51.78526 -0.70290 33311 ft 479 kts 135°
2026-04-21 13:49 51.73856 -0.62605 33311 ft 479 kts 135°
2026-04-21 13:49 51.69165 -0.54909 33297 ft 480 kts 135°
2026-04-21 13:50 51.64504 -0.47286 33293 ft 480 kts 136°
2026-04-21 13:50 51.59803 -0.39622 33290 ft 480 kts 136°
2026-04-21 13:51 51.55095 -0.31971 33295 ft 481 kts 136°
2026-04-21 13:51 51.50415 -0.24389 33295 ft 480 kts 136°
2026-04-21 13:52 51.45700 -0.16772 33315 ft 481 kts 136°
2026-04-21 13:52 51.40973 -0.09161 33319 ft 481 kts 136°
2026-04-21 13:53 51.36270 -0.01564 33318 ft 481 kts 132°
2026-04-21 13:53 51.34359 0.02723 33314 ft 479 kts 116°
2026-04-21 13:53 51.33196 0.07682 33319 ft 473 kts 98°
2026-04-21 13:54 51.32472 0.18089 33316 ft 471 kts 90°
2026-04-21 13:54 51.31932 0.28507 33320 ft 470 kts 90°
2026-04-21 13:55 51.31678 0.33720 33550 ft 469 kts 90°
2026-04-21 13:55 51.31430 0.38857 33561 ft 469 kts 90°
2026-04-21 13:55 51.30922 0.49250 33567 ft 469 kts 90°
2026-04-21 13:56 51.30425 0.59641 33536 ft 468 kts 88°
2026-04-21 13:56 51.30064 0.70022 33486 ft 467 kts 89°
2026-04-21 13:57 51.29682 0.80332 33422 ft 466 kts 89°
2026-04-21 13:57 51.29486 0.85490 33320 ft 465 kts 89°
2026-04-21 13:57 51.29288 0.90660 33317 ft 465 kts 89°
2026-04-21 13:58 51.28886 1.00974 33312 ft 464 kts 89°
2026-04-21 13:58 51.28486 1.11182 33319 ft 463 kts 89°
2026-04-21 13:59 51.28077 1.21459 33319 ft 462 kts 89°
2026-04-21 13:59 51.27660 1.31698 33317 ft 461 kts 89°
2026-04-21 14:00 51.27235 1.41915 33316 ft 461 kts 89°
2026-04-21 14:00 51.26801 1.52127 33314 ft 460 kts 90°
2026-04-21 14:01 51.26362 1.62245 33316 ft 459 kts 90°
2026-04-21 14:01 51.25913 1.72410 33310 ft 458 kts 90°
2026-04-21 14:02 51.25455 1.82567 33308 ft 458 kts 90°
2026-04-21 14:03 51.24755 1.97727 33303 ft 457 kts 90°
2026-04-21 14:03 51.24278 2.07840 33302 ft 457 kts 90°
2026-04-21 14:03 51.24037 2.12885 33199 ft 452 kts 90°
2026-04-21 14:04 51.23798 2.17847 32426 ft 455 kts 90°
2026-04-21 14:04 51.23553 2.22895 31621 ft 455 kts 90°
2026-04-21 14:04 51.23306 2.27929 31075 ft 449 kts 90°
2026-04-21 14:04 51.23065 2.32803 30649 ft 441 kts 90°
2026-04-21 14:05 51.22724 2.37623 30135 ft 438 kts 99°
2026-04-21 14:05 51.21931 2.41238 29678 ft 438 kts 115°
2026-04-21 14:05 51.20215 2.45200 29225 ft 432 kts 130°
2026-04-21 14:05 51.18262 2.48852 28469 ft 431 kts 129°
2026-04-21 14:06 51.16332 2.52476 27993 ft 422 kts 129°
2026-04-21 14:06 51.14436 2.56001 27629 ft 416 kts 129°
2026-04-21 14:06 51.12558 2.59475 27232 ft 413 kts 129°
2026-04-21 14:06 51.10704 2.62953 26801 ft 409 kts 125°
2026-04-21 14:07 51.09390 2.66854 26318 ft 402 kts 104°
2026-04-21 14:07 51.08810 2.71156 26005 ft 394 kts 98°
2026-04-21 14:07 51.08274 2.75424 25642 ft 390 kts 98°
2026-04-21 14:07 51.07752 2.79637 25259 ft 387 kts 98°
2026-04-21 14:08 51.07241 2.83823 24886 ft 384 kts 98°
2026-04-21 14:08 51.06742 2.87934 24514 ft 381 kts 98°
2026-04-21 14:08 51.06239 2.92073 24135 ft 378 kts 98°
2026-04-21 14:08 51.05740 2.96169 23725 ft 376 kts 98°
2026-04-21 14:09 51.05244 3.00235 23303 ft 373 kts 98°
2026-04-21 14:09 51.04757 3.04214 22925 ft 369 kts 98°
2026-04-21 14:09 51.04268 3.08199 22561 ft 364 kts 98°
2026-04-21 14:09 51.03784 3.12133 22198 ft 360 kts 98°
2026-04-21 14:10 51.03305 3.16017 21836 ft 356 kts 98°
2026-04-21 14:10 51.02828 3.19863 21481 ft 353 kts 98°
2026-04-21 14:10 51.02354 3.23678 21133 ft 349 kts 98°
2026-04-21 14:10 51.01891 3.27405 20787 ft 346 kts 98°
2026-04-21 14:11 51.01425 3.31139 20447 ft 342 kts 98°
2026-04-21 14:11 51.00963 3.34830 20107 ft 339 kts 98°
2026-04-21 14:11 51.00503 3.38489 19776 ft 336 kts 98°
2026-04-21 14:11 51.00047 3.42116 19447 ft 333 kts 98°
2026-04-21 14:12 50.99600 3.45660 19124 ft 330 kts 98°
2026-04-21 14:12 50.99146 3.49233 18800 ft 327 kts 98°
2026-04-21 14:12 50.98851 3.51564 18589 ft 325 kts 99°
2026-04-21 14:12 50.98407 3.55065 18232 ft 322 kts 99°
2026-04-21 14:13 50.97965 3.58536 17899 ft 319 kts 99°
2026-04-21 14:13 50.97527 3.61968 17584 ft 315 kts 99°
2026-04-21 14:13 50.97094 3.65349 17277 ft 311 kts 99°
2026-04-21 14:13 50.96698 3.68442 16997 ft 307 kts 99°
2026-04-21 14:14 50.96272 3.71747 16694 ft 303 kts 99°
2026-04-21 14:14 50.95853 3.75000 16396 ft 299 kts 99°
2026-04-21 14:14 50.95436 3.78225 16114 ft 295 kts 99°
2026-04-21 14:14 50.95025 3.81402 15825 ft 292 kts 99°
2026-04-21 14:15 50.94622 3.84506 15536 ft 289 kts 99°
2026-04-21 14:15 50.94217 3.87623 15251 ft 286 kts 99°
2026-04-21 14:15 50.93817 3.90699 14969 ft 283 kts 99°
2026-04-21 14:15 50.93420 3.93742 14698 ft 280 kts 99°
2026-04-21 14:16 50.93019 3.96750 14417 ft 278 kts 102°
2026-04-21 14:16 50.92169 3.99505 14076 ft 283 kts 126°
2026-04-21 14:16 50.90741 4.01606 13770 ft 283 kts 136°
2026-04-21 14:16 50.89244 4.03604 13468 ft 280 kts 136°
2026-04-21 14:17 50.87995 4.05249 13235 ft 277 kts 136°
2026-04-21 14:17 50.86514 4.07179 12959 ft 274 kts 136°
2026-04-21 14:17 50.85049 4.09077 12686 ft 270 kts 137°
2026-04-21 14:17 50.83592 4.10953 12420 ft 271 kts 137°
2026-04-21 14:18 50.82118 4.12847 12141 ft 276 kts 137°
2026-04-21 14:18 50.80613 4.14776 11863 ft 278 kts 137°
2026-04-21 14:18 50.79120 4.16686 11589 ft 278 kts 137°
2026-04-21 14:18 50.77612 4.18613 11306 ft 278 kts 137°
2026-04-21 14:19 50.76110 4.20532 11021 ft 277 kts 137°
2026-04-21 14:19 50.74621 4.22432 10741 ft 274 kts 137°
2026-04-21 14:19 50.73144 4.24316 10468 ft 271 kts 137°
2026-04-21 14:19 50.71673 4.26191 10174 ft 269 kts 137°
2026-04-21 14:20 50.70222 4.28038 9848 ft 268 kts 137°
2026-04-21 14:20 50.68723 4.29716 9513 ft 269 kts 147°
2026-04-21 14:20 50.67067 4.31088 9188 ft 268 kts 148°
2026-04-21 14:20 50.65431 4.32448 8914 ft 265 kts 148°
2026-04-21 14:21 50.63805 4.33806 8636 ft 262 kts 148°
2026-04-21 14:21 50.62195 4.35154 8357 ft 260 kts 148°
2026-04-21 14:21 50.60601 4.36490 8065 ft 259 kts 148°
2026-04-21 14:21 50.59013 4.37822 7790 ft 257 kts 148°
2026-04-21 14:22 50.57433 4.39146 7516 ft 256 kts 148°
2026-04-21 14:22 50.55885 4.40443 7243 ft 255 kts 148°
2026-04-21 14:22 50.54324 4.41748 6953 ft 253 kts 148°
2026-04-21 14:22 50.52760 4.43019 6682 ft 253 kts 154°
2026-04-21 14:23 50.51007 4.43478 6365 ft 261 kts 182°
2026-04-21 14:23 50.49279 4.42587 6073 ft 266 kts 210°
2026-04-21 14:23 50.47972 4.40538 5802 ft 267 kts 238°
2026-04-21 14:23 50.47371 4.37846 5520 ft 268 kts 266°
2026-04-21 14:24 50.47412 4.34909 5309 ft 268 kts 275°
2026-04-21 14:24 50.47530 4.31977 5068 ft 267 kts 275°
2026-04-21 14:24 50.47653 4.29087 4829 ft 262 kts 275°
2026-04-21 14:24 50.47416 4.26352 4622 ft 254 kts 250°
2026-04-21 14:25 50.46806 4.23763 4353 ft 252 kts 249°
2026-04-21 14:25 50.46179 4.21203 4047 ft 251 kts 249°
2026-04-21 14:25 50.45546 4.18648 3773 ft 251 kts 249°
2026-04-21 14:25 50.44844 4.16166 3555 ft 249 kts 234°
2026-04-21 14:26 50.43520 4.14557 3315 ft 240 kts 194°
2026-04-21 14:26 50.41908 4.14512 3056 ft 226 kts 158°
2026-04-21 14:26 50.40578 4.15513 3044 ft 207 kts 139°
2026-04-21 14:26 50.39600 4.17037 3015 ft 189 kts 118°
2026-04-21 14:27 50.39126 4.18822 3020 ft 172 kts 97°
2026-04-21 14:27 50.39024 4.20673 2978 ft 168 kts 82°
2026-04-21 14:27 50.39305 4.22425 2967 ft 166 kts 68°
2026-04-21 14:27 50.39769 4.24096 3014 ft 167 kts 65°
2026-04-21 14:28 50.40254 4.25754 3071 ft 167 kts 64°
2026-04-21 14:28 50.40740 4.27387 2930 ft 168 kts 64°
2026-04-21 14:28 50.41232 4.29052 2718 ft 168 kts 65°
2026-04-21 14:28 50.41720 4.30715 2550 ft 168 kts 65°
2026-04-21 14:29 50.42199 4.32349 2340 ft 161 kts 65°
2026-04-21 14:29 50.42641 4.33838 2120 ft 139 kts 64°
2026-04-21 14:29 50.43027 4.35153 1919 ft 130 kts 64°
2026-04-21 14:29 50.43404 4.36440 1788 ft 131 kts 64°
2026-04-21 14:30 50.43780 4.37718 1563 ft 128 kts 65°
2026-04-21 14:30 50.44148 4.38967 1394 ft 124 kts 64°
2026-04-21 14:30 50.44523 4.40212 1176 ft 129 kts 66°
2026-04-21 14:30 50.44890 4.41509 1023 ft 130 kts 66°
2026-04-21 14:31 50.45257 4.42790 828 ft 127 kts 65°
2026-04-21 14:31 50.45629 4.44059 680 ft 129 kts 65°
2026-04-21 14:31 50.45987 4.45289 629 ft 110 kts 64°
2026-04-21 14:31 50.46207 4.46042 620 ft 45 kts 66°
2026-04-21 14:32 50.46338 4.46495 604 ft 48 kts 66°
2026-04-21 14:32 50.46433 4.46847 600 ft 18 kts 52°
2026-04-21 14:32 50.46558 4.46864 592 ft 22 kts 334°
2026-04-21 14:32 50.46594 4.46833 591 ft 0 kts 334°
2026-04-21 14:33 50.46598 4.46832 592 ft 2 kts 354°
2026-04-21 14:33 50.46618 4.46855 590 ft 6 kts 49°
2026-04-21 14:33 50.46643 4.46925 590 ft 9 kts 64°
2026-04-21 14:33 50.46675 4.47034 588 ft 13 kts 65°
2026-04-21 14:34 50.46716 4.47179 589 ft 16 kts 65°
2026-04-21 14:34 50.46772 4.47341 586 ft 12 kts 36°
2026-04-21 14:34 50.46830 4.47332 586 ft 8 kts 333°
2026-04-21 14:34 50.46853 4.47252 586 ft 10 kts 256°
2026-04-21 14:35 50.46826 4.47159 589 ft 4 kts 244°
2026-04-21 14:35 50.46825 4.47136 586 ft 1 kts 291°
2026-04-21 14:35 50.46835 4.47126 589 ft 3 kts 330°
2026-04-21 14:35 50.46861 4.47105 587 ft 6 kts 335°
2026-04-21 14:36 50.46871 4.47098 591 ft 0 kts 335°